When you browse on this site, cookies collect data to enhance your experience and personalize the content and advertising you see.
Visit our Privacy Policy to learn more. By continuing to use the site, you agree to this use of cookies and data.
  • în România
  • Lista ţărilor
  • Pe 7 zile
  • Temperatura apei
  • Meteo pe hartă
  • Widget-uri
  • user-avatar
    Intrare

    Meteo pe oră la Arusha

    Astăzi, 3 Iunie, Miercuri

    Timp Temperatura Precipitaţii Vânt Presiune Umiditate
    00:00 +16°C° 0 mm 2 m/s 644 mmHg 92%
    01:00 +15°C° 0 mm 2 m/s 643 mmHg 92%
    02:00 +15°C° 0 mm 2 m/s 643 mmHg 92%
    03:00 +15°C° 0 mm 2 m/s 643 mmHg 92%
    04:00 +15°C° 0 mm 2 m/s 643 mmHg 92%
    05:00 +14°C° 0 mm 1 m/s 643 mmHg 92%
    06:00 +16°C° 0 mm 2 m/s 644 mmHg 87%
    07:00 +17°C° 0 mm 2 m/s 645 mmHg 82%
    08:00 +19°C° 0 mm 3 m/s 646 mmHg 77%
    09:00 +19°C° 0 mm 3 m/s 645 mmHg 75%
    10:00 +20°C° 0 mm 3 m/s 645 mmHg 73%
    11:00 +20°C° 0 mm 3 m/s 645 mmHg 72%
    12:00 +21°C° 0 mm 3 m/s 644 mmHg 69%
    13:00 +22°C° 0 mm 3 m/s 644 mmHg 66%
    14:00 +24°C° 0 mm 3 m/s 644 mmHg 62%
    15:00 +22°C° 0 mm 3 m/s 644 mmHg 66%
    16:00 +21°C° 0 mm 3 m/s 643 mmHg 70%
    17:00 +20°C° 0 mm 3 m/s 643 mmHg 74%
    18:00 +19°C° 0.1 mm 3 m/s 643 mmHg 80%
    19:00 +18°C° 0.1 mm 3 m/s 644 mmHg 85%
    20:00 +17°C° 0.1 mm 3 m/s 644 mmHg 90%
    21:00 +17°C° 0 mm 3 m/s 644 mmHg 91%
    22:00 +17°C° 0 mm 3 m/s 644 mmHg 92%
    23:00 +16°C° 0 mm 3 m/s 644 mmHg 93%

    Mâine, 4 Iunie, Joi

    Timp Temperatura Precipitaţii Vânt Presiune Umiditate
    00:00 +16°C° 0 mm 2 m/s 643 mmHg 94%
    01:00 +16°C° 0 mm 2 m/s 643 mmHg 94%
    02:00 +16°C° 0 mm 2 m/s 643 mmHg 95%
    03:00 +16°C° 0 mm 2 m/s 643 mmHg 95%
    04:00 +15°C° 0 mm 2 m/s 643 mmHg 95%
    05:00 +15°C° 0 mm 2 m/s 643 mmHg 95%
    06:00 +16°C° 0 mm 2 m/s 644 mmHg 88%
    07:00 +18°C° 0 mm 2 m/s 645 mmHg 81%
    08:00 +19°C° 0 mm 2 m/s 645 mmHg 74%
    09:00 +20°C° 0 mm 3 m/s 645 mmHg 69%
    10:00 +21°C° 0 mm 3 m/s 645 mmHg 64%
    11:00 +22°C° 0 mm 3 m/s 645 mmHg 59%
    12:00 +24°C° 0 mm 3 m/s 645 mmHg 57%
    13:00 +24°C° 0 mm 3 m/s 645 mmHg 55%
    14:00 +25°C° 0 mm 3 m/s 644 mmHg 54%
    15:00 +24°C° 0 mm 3 m/s 644 mmHg 57%
    16:00 +22°C° 0 mm 3 m/s 643 mmHg 61%
    17:00 +21°C° 0 mm 4 m/s 643 mmHg 65%
    18:00 +20°C° 0 mm 3 m/s 643 mmHg 70%
    19:00 +18°C° 0 mm 3 m/s 644 mmHg 75%
    20:00 +17°C° 0 mm 3 m/s 644 mmHg 80%
    21:00 +17°C° 0 mm 3 m/s 644 mmHg 83%
    22:00 +16°C° 0 mm 2 m/s 644 mmHg 87%
    23:00 +16°C° 0 mm 2 m/s 644 mmHg 91%

    Poimâine, 5 Iunie, Vineri

    Timp Temperatura Precipitaţii Vânt Presiune Umiditate
    00:00 +15°C° 0 mm 2 m/s 644 mmHg 88%
    01:00 +15°C° 0 mm 2 m/s 643 mmHg 84%
    02:00 +14°C° 0 mm 2 m/s 643 mmHg 81%
    03:00 +14°C° 0 mm 2 m/s 643 mmHg 82%
    04:00 +14°C° 0 mm 1 m/s 643 mmHg 84%
    05:00 +14°C° 0 mm 1 m/s 644 mmHg 85%
    06:00 +16°C° 0 mm 1 m/s 644 mmHg 79%
    07:00 +17°C° 0 mm 2 m/s 645 mmHg 73%
    08:00 +19°C° 0 mm 2 m/s 646 mmHg 67%
    09:00 +20°C° 0 mm 2 m/s 646 mmHg 63%
    10:00 +21°C° 0 mm 2 m/s 646 mmHg 59%
    11:00 +23°C° 0 mm 2 m/s 646 mmHg 55%
    12:00 +24°C° 0 mm 2 m/s 645 mmHg 52%
    13:00 +25°C° 0 mm 3 m/s 645 mmHg 50%
    14:00 +26°C° 0 mm 3 m/s 645 mmHg 47%
    15:00 +25°C° 0 mm 3 m/s 644 mmHg 53%
    16:00 +22°C° 0 mm 3 m/s 644 mmHg 59%
    17:00 +21°C° 0 mm 3 m/s 643 mmHg 64%
    18:00 +20°C° 0 mm 3 m/s 644 mmHg 71%
    19:00 +19°C° 0 mm 3 m/s 644 mmHg 77%
    20:00 +18°C° 0 mm 3 m/s 644 mmHg 83%
    21:00 +17°C° 0 mm 3 m/s 644 mmHg 87%
    22:00 +17°C° 0 mm 3 m/s 644 mmHg 90%
    23:00 +16°C° 0 mm 3 m/s 644 mmHg 94%

    6 Iunie, Sâmbătă

    Timp Temperatura Precipitaţii Vânt Presiune Umiditate
    00:00 +16°C° 0 mm 2 m/s 644 mmHg 93%
    01:00 +15°C° 0 mm 2 m/s 643 mmHg 93%
    02:00 +15°C° 0 mm 2 m/s 643 mmHg 93%
    03:00 +15°C° 0 mm 2 m/s 643 mmHg 93%
    04:00 +15°C° 0 mm 1 m/s 643 mmHg 92%
    05:00 +15°C° 0 mm 1 m/s 643 mmHg 92%
    06:00 +16°C° 0 mm 1 m/s 644 mmHg 86%
    07:00 +19°C° 0 mm 1 m/s 645 mmHg 79%
    08:00 +20°C° 0 mm 1 m/s 646 mmHg 72%
    09:00 +21°C° 0 mm 2 m/s 646 mmHg 66%
    10:00 +23°C° 0 mm 2 m/s 646 mmHg 59%
    11:00 +25°C° 0 mm 3 m/s 646 mmHg 53%
    12:00 +25°C° 0 mm 3 m/s 645 mmHg 51%
    13:00 +25°C° 0 mm 3 m/s 645 mmHg 50%
    14:00 +26°C° 0 mm 3 m/s 644 mmHg 48%
    15:00 +25°C° 0 mm 3 m/s 644 mmHg 54%
    16:00 +24°C° 0 mm 2 m/s 643 mmHg 59%
    17:00 +23°C° 0 mm 2 m/s 643 mmHg 64%
    18:00 +21°C° 0 mm 2 m/s 643 mmHg 68%
    19:00 +19°C° 0 mm 3 m/s 643 mmHg 71%
    20:00 +18°C° 0 mm 3 m/s 644 mmHg 75%
    21:00 +18°C° 0 mm 3 m/s 644 mmHg 81%
    22:00 +17°C° 0 mm 3 m/s 643 mmHg 87%
    23:00 +17°C° 0 mm 3 m/s 643 mmHg 93%

    7 Iunie, Duminică

    Timp Temperatura Precipitaţii Vânt Presiune Umiditate
    00:00 +17°C° 0 mm 3 m/s 643 mmHg 94%
    01:00 +17°C° 0 mm 2 m/s 643 mmHg 94%
    02:00 +17°C° 0 mm 2 m/s 643 mmHg 94%
    03:00 +16°C° 0 mm 2 m/s 643 mmHg 94%
    04:00 +16°C° 0 mm 2 m/s 643 mmHg 94%
    05:00 +16°C° 0 mm 2 m/s 643 mmHg 94%
    06:00 +17°C° 0 mm 2 m/s 644 mmHg 89%
    07:00 +18°C° 0 mm 2 m/s 645 mmHg 84%
    08:00 +19°C° 0 mm 2 m/s 645 mmHg 78%
    09:00 +20°C° 0 mm 2 m/s 645 mmHg 74%
    10:00 +21°C° 0 mm 3 m/s 645 mmHg 71%
    11:00 +22°C° 0 mm 3 m/s 645 mmHg 67%
    12:00 +22°C° 0 mm 3 m/s 644 mmHg 65%
    13:00 +22°C° 0 mm 3 m/s 644 mmHg 63%
    14:00 +24°C° 0 mm 3 m/s 643 mmHg 61%
    15:00 +22°C° 0 mm 3 m/s 643 mmHg 65%
    16:00 +21°C° 0 mm 3 m/s 643 mmHg 68%
    17:00 +20°C° 0 mm 3 m/s 642 mmHg 72%
    18:00 +19°C° 0 mm 3 m/s 643 mmHg 75%
    19:00 +18°C° 0 mm 2 m/s 643 mmHg 78%
    20:00 +17°C° 0 mm 2 m/s 643 mmHg 81%
    21:00 +17°C° 0 mm 3 m/s 643 mmHg 86%
    22:00 +17°C° 0 mm 3 m/s 643 mmHg 91%
    23:00 +16°C° 0 mm 3 m/s 643 mmHg 95%

    8 Iunie, Luni

    Timp Temperatura Precipitaţii Vânt Presiune Umiditate
    00:00 +16°C° 0 mm 3 m/s 643 mmHg 95%
    01:00 +16°C° 0 mm 3 m/s 643 mmHg 94%
    02:00 +16°C° 0 mm 3 m/s 643 mmHg 94%
    03:00 +16°C° 0 mm 2 m/s 643 mmHg 94%
    04:00 +15°C° 0 mm 2 m/s 643 mmHg 95%
    05:00 +15°C° 0 mm 2 m/s 643 mmHg 95%
    06:00 +16°C° 0 mm 2 m/s 643 mmHg 89%
    07:00 +17°C° 0 mm 2 m/s 644 mmHg 83%
    08:00 +19°C° 0 mm 2 m/s 645 mmHg 76%
    09:00 +20°C° 0 mm 2 m/s 645 mmHg 72%
    10:00 +20°C° 0 mm 3 m/s 645 mmHg 69%
    11:00 +21°C° 0 mm 3 m/s 644 mmHg 65%
    12:00 +22°C° 0 mm 3 m/s 644 mmHg 64%
    13:00 +22°C° 0 mm 3 m/s 643 mmHg 63%
    14:00 +22°C° 0 mm 3 m/s 642 mmHg 62%
    15:00 +22°C° 0 mm 3 m/s 642 mmHg 65%
    16:00 +21°C° 0 mm 3 m/s 642 mmHg 69%
    17:00 +20°C° 0 mm 2 m/s 642 mmHg 72%
    18:00 +19°C° 0 mm 3 m/s 642 mmHg 76%
    19:00 +18°C° 0 mm 3 m/s 643 mmHg 81%
    20:00 +17°C° 0 mm 3 m/s 643 mmHg 85%
    21:00 +17°C° 0 mm 3 m/s 643 mmHg 88%
    22:00 +16°C° 0 mm 3 m/s 643 mmHg 90%
    23:00 +16°C° 0 mm 3 m/s 643 mmHg 93%
    Arată mai mult